Location: ????????
(55.0097°N, 38.5678°E)
Time: 15:22:54
(UTC+00:00)

CZ-6A DEB - Visible Passes

Search period start: 08 September 2024 00:00
Search period end: 18 September 2024 00:00
Orbit: 822 x 900 km, 98.8° (Epoch: 07 September)

Date Brightness Start Highest point End Pass type
(mag) Time Alt. Az. Time Alt. Az. Time Alt. Az.
09 Sep ? 02:05:12 10° NE 02:09:08 19° E 02:13:05 10° SE visible
10 Sep ? 01:56:47 10° NE 02:00:19 17° E 02:03:51 10° ESE visible
11 Sep ? 01:48:29 10° NE 01:51:28 14° E 01:54:29 10° ESE visible
12 Sep ? 01:40:18 10° ENE 01:42:36 12° E 01:44:55 10° ESE visible
13 Sep ? 01:32:34 10° ENE 01:33:43 11° E 01:34:51 10° E visible
14 Sep ? 16:23:17 10° W 16:24:49 11° W 16:26:23 10° WNW visible
15 Sep ? 16:13:23 10° WSW 16:15:53 13° W 16:18:24 10° NW visible
